Tracking 19846 objects as of 20-Sep-2019
HD Live streaming from Space Station
objects crossing your sky now

FENGYUN 1C DEB

Track FENGYUN 1C DEB now!
10-day predictions


NORAD ID: 32422
Int'l Code: 1999-025DAJ
Perigee: 694.5 km
Apogee: 1,143.1 km
Inclination: 97.9 °
Period: 103.2 minutes
Semi major axis: 7289 km
RCS: 0.0061 m2 (small)
Launch date: May 10, 1999
Source: People's Republic of China (PRC)
Launch site: Taiyaun Space Center, China (TSC)

Note: This is SATELLITE DEBRIS
aabbcc
Your satellite tracking list
Your tracking list is empty




NASA's NSSDC Master Catalog

Two Line Element Set (TLE):
1 32422U 99025DAJ 19262.44266774  .00000055  00000-0  47231-4 0  9999
2 32422  97.8575 338.7306 0307644 279.3038  77.3464 13.94852133605463
Source of the keplerian elements: AFSPC